Dewpoint
21 21 20 20 21 23 23 22 24 28 29 30 32 32 33 33 33 34 34 35 36 36 37 38 38 39 39
20 20 20 20 22 21 21 21 23 26 29 30 31 31 32 31 31 32 33 34 35 36 36 37 37 37 38
19 21 22 22 21 21 21 22 22 27 27 28 30 31 31 32 31 30 29 28 30 33 33 34 35 36 36
20 20 21 22 22 21 21 23 23 24 26 27 29 30 30 30 30 29 28 29 30 30 33 34 35 36 36
19 20 20 20 20 22 22 22 25 26 25 25 26 26 26 28 28 28 28 29 30 31 32 32 33 33 34
19 19 19 20 21 21 23 23 22 24 25 23 25 24 25 26 28 29 30 30 30 32 33 34 35 34 33
23 23 21 23 24 23 23 23 23 23 22 21 23 22 24 24 28 29 29 31 31 31 30 31 30 30 31
23 24 24 24 24 23 22 23 24 24 23 23 24 23 25 25 30 30 28 28 29 29 29 29 29 30 28
26 26 28 29 28 25 22 25 25 25 26 24 24 23 24 25 27 28 27 27 28 27 27 27 28 28 26
22 23 24 24 26 25 23 19 23 20 23 23 22 23 20 23 23 24 24 27 26 26 26 27 26 23 21
23 22 22 23 24 25 26 25 21 19 23 23 17 20 20 22 22 23 24 23 22 22 24 24 24 23 21
24 24 24 24 25 26 25 24 24 23 23 24 11 18 7 16 16 18 19 20 20 19 20 22 25 25 26
25 25 25 26 25 23 22 21 21 21 19 21 21 20 16 16 16 17 18 19 21 21 21 22 22 23 22
26 26 25 23 22 21 18 20 16 18 22 22 22 20 14 17 18 17 19 18 20 20 21 21 22 22 23
22 22 22 21 20 21 20 18 14 16 17 19 21 21 21 19 17 19 18 19 19 20 20 20 21 21 22
22 22 21 20 19 19 20 16 17 17 17 17 13 11 14 18 22 19 19 19 19 20 20 20 19 20 21
23 20 20 18 19 17 18 19 18 18 17 17 12 13 13 11 14 18 17 17 18 18 19 19 18 19 19
Lifted_Index
22 22 23 23 23 24 24 24 24 24 23 22 21 21 21 20 20 20 20 20 20 20 20 19 19 19 19
22 22 23 23 23 24 24 24 24 24 23 22 21 21 20 20 20 21 21 21 21 20 20 20 20 19 19
22 22 23 23 23 23 23 24 24 24 23 23 22 21 21 21 21 21 22 22 22 21 20 20 20 20 20
21 21 22 22 23 23 23 23 23 23 23 23 23 22 22 22 22 22 23 23 22 21 21 20 20 20 20
20 20 21 21 21 21 21 21 22 22 22 22 22 22 22 22 22 23 23 22 22 21 21 20 20 20 20
19 19 20 20 20 21 21 20 20 21 21 21 21 21 21 21 22 21 21 21 21 21 20 20 20 21 21
19 19 19 20 20 20 20 20 20 20 20 20 20 20 20 21 21 20 20 20 20 20 20 20 20 21 21
18 19 19 19 19 19 20 20 20 19 19 19 19 20 20 20 20 20 20 20 19 19 19 20 20 20 21
18 18 18 18 18 18 18 19 19 19 19 19 19 20 20 20 20 20 20 20 20 20 20 20 20 21 21
17 17 17 17 17 17 17 18 18 18 19 19 20 20 20 20 20 20 21 21 21 21 21 21 21 22 22
15 15 16 16 16 16 16 17 17 17 18 19 19 19 19 20 19 20 20 21 21 21 21 22 22 22 23
14 14 14 15 15 15 15 16 16 17 17 18 18 18 18 18 18 18 19 19 20 20 20 21 21 21 22
14 14 14 14 14 15 15 16 16 17 17 17 18 18 17 17 17 17 17 17 18 18 19 19 20 20 20
14 14 14 14 14 14 15 15 16 16 16 17 17 17 17 17 17 17 17 17 17 18 18 18 19 19 19
13 13 13 13 14 14 14 14 15 15 15 15 16 16 17 17 17 17 17 17 17 17 17 17 18 18 18
13 13 13 13 13 13 13 14 14 14 14 14 15 15 15 15 16 16 16 16 16 16 17 17 17 17 17
13 13 12 12 13 13 13 13 14 14 14 14 14 14 14 14 15 16 16 15 16 16 16 16 16 16 16